Other Surface Observations
Issued by NWS Upton, NY

Current Version | Previous Version | Text Only | Print | Product List | Glossary On
Versions: 1 2 3 4 5 6 7 8 9 10 11 12 13 14 15 16 17 18 19 20 21 22 23 24 25 26 27 28 29 30 31 32 33 34 35 36 37 38 39 40 41 42 43 44 45 46 47 48 49 50
000
SXUS51 KOKX 240857
OSOOKX
New York City Metropolitan Area Weather Roundup
National Weather Service New York NY
400 AM EST SAT FEB 24 2018

CITY           SKY/WX    TMP DP  RH WIND       PRES   REMARKS
Central Park   NOT AVBL
LaGuardia Arpt MOCLDY    45  41  86 W9        30.13F
Kennedy Intl   CLOUDY    43  42  97 W9        30.15F
Newark Liberty CLOUDY    43  41  93 SW6       30.14F
Teterboro Arpt FAIR      43  40  89 S3        30.13F
Bronx Bot Gard   N/A     43  39  87 W10       30.13F
Bronx Lehman C   N/A     43  39  87 SW5         N/A
Queens College   N/A     43  41  93 W9          N/A
Breezy Point     N/A     41 N/A N/A W10G17      N/A
Brooklyn Coll    N/A     43  41  93 W8          N/A
Staten Island    N/A     43  41  93 W7          N/A

>>>>>>>>>>>>>>>>>>>>>>>>>>>>>>>>> KEY <<<<<<<<<<<<<<<<<<<<<<<<<<<<<<<
> SKY/WX - Sky Condition/Present    : R : WCI - Wind Chill Index    <
>          Weather                  : E : VSB - Visibility in Miles <
> TMP    - Temperature in Deg F     : M : HX  - Heat Index          <
> DP     - Dew Point Temperature    : A : TC  - Temperature in      <
> RH     - Relative Humidity        : R :       Celsius             <
> WIND   - Direction/Speed (mph)    : K : VRB - Variable Wind Dir   <
> PRES   - Pressure (in Hg)         : S :                           <
>>>>>>>>>>>>>>>>>>>>>>>>>>>>>>>>> KEY <<<<<<<<<<<<<<<<<<<<<<<<<<<<<<<



USA.gov is the U.S. government's official web portal to all federal, state and local government web resources and services.